{"data":{"norad_id":64534,"intl_designator":"2025-135G","name":"CONNECTA IOT-9","alt_names":[],"object_type":"PAYLOAD","status":"ACTIVE","operator":null,"country":"TURK","launch_date":"2025-06-23","launch_site_code":"AFWTR","launch_vehicle":null,"mission":null,"orbit_class":"UNKNOWN","rcs_meters":null,"size_class":null,"mass_kg":null,"dimensions":null,"purposes":[],"wikipedia_slug":null,"has_3d_model":false,"image_url":null,"decayed_at":null,"tle_current":{"epoch":"2026-05-24T21:09:49.260096Z","epoch_age_seconds":81401,"freshness":"FRESH","line1":"1 64534U 25135G   26144.88182014  .00002740  00000+0  13062-3 0  9994","line2":"2 64534  97.4732 259.9782 0003870 243.4717 116.6122 15.19948323 51284","mean_motion":15.19948323,"eccentricity":0.000387,"inclination_deg":97.4732,"raan_deg":259.9782,"arg_perigee_deg":243.4717,"mean_anomaly_deg":116.6122,"bstar":0.00013062,"rev_number":5128,"period_min":94.740063080421,"perigee_km":503.33248620974,"apogee_km":508.66080565169,"semimajor_km":6884.1336459307,"source":"CELESTRAK","updated_at":"2026-05-25T13:38:04.581090Z"}}}